Regional Weather Roundup
Issued by NWS State College, PA

Home | Current Version | Previous Version | Graphics & Text | Print | Product List | Glossary On
Versions: 1 2 3 4 5 6 7 8 9 10 11 12 13 14 15 16 17 18 19 20 21 22 23 24 25 26 27 28 29 30 31 32 33 34 35 36 37 38 39 40 41 42 43 44 45 46 47 48 49 50
000
ASUS41 KCTP 020510
RWRCTP

REGIONAL WEATHER ROUNDUP
NATIONAL WEATHER SERVICE STATE COLLEGE PA
100 AM EDT THU JUL 02 2015

Note: "fair" indicates few or no clouds below 12,000 feet with no
significant weather and/or obstructions to visibility.

* = STATION THAT DOES NOT REPORT PRECIPITATION /E.G. RAIN...SNOW...ETC/
    THUNDER OR FOG.

PAZ002>004-007>009-013>016-020>023-029>032-020600-
WESTERN PENNSYLVANIA

CITY           SKY/WX    TMP DP  RH WIND       PRES   REMARKS
ERIE           PTCLDY    62  57  83 CALM      29.94F
MEADVILLE      PTCLDY    57  55  93 CALM      29.96F FOG
FRANKLIN*      MOCLDY    57  54  88 CALM      29.97F
NEW CASTLE     FAIR      62  62 100 CALM      29.95F
BEAVER COUNTY  NOT AVBL
BUTLER*        CLEAR     59  57  94 CALM      29.96F
PITTSBURGH INT PTCLDY    62  58  86 CALM      29.94S
PITTSBURGH     PTCLDY    67  56  67 W5        29.94S
INDIANA*       CLOUDY    59  59 100 CALM      29.99S FOG
LATROBE        NOT AVBL
WASHINGTON CO* NOT AVBL
$$

PAZ004>006-010>012-017>019-024>028-033>037-041-042-045-046-049>053-020600-
CENTRAL PENNSYLVANIA

CITY           SKY/WX    TMP DP  RH WIND       PRES   REMARKS
BRADFORD       PTCLDY    54  52  93 CALM      29.97F FOG
DUBOIS         PTCLDY    59  56  89 CALM      29.96S
CLEARFIELD     MOCLDY    59  56  89 NW3       29.96S
JOHNSTOWN      CLEAR     60  54  80 SW5       29.98S
ALTOONA        CLEAR     58  55  90 S5        29.96S
STATE COLLEGE  NOT AVBL
WILLIAMSPORT   CLEAR     61  58  90 CALM      29.91R
SELINSGROVE    CLEAR     62  61  96 CALM      29.92S FOG
FT INDIANTOWN  CLEAR     66  60  80 CALM      29.91S
CAPITAL CITY   CLEAR     64  60  87 SW5       29.90F
HARRISBURG     PTCLDY    67  60  78 NW3       29.89F
YORK           CLEAR     61  59  93 CALM      29.91S
$$

PAZ038>040-043-044-047-048-054-055-060>062-067>071-020600-
EASTERN PENNSYLVANIA

CITY           SKY/WX    TMP DP  RH WIND       PRES   REMARKS
SCRANTON       CLEAR     61  58  90 CALM      29.92S
MOUNT POCONO   CLEAR     59  56  89 NW6       29.95R
ALLENTOWN      CLEAR     64  58  80 CALM      29.90S
QUAKERTOWN*    CLEAR     66  59  77 CALM      29.92R
READING        CLEAR     65  60  84 CALM      29.90S
LANCASTER      CLEAR     67  59  75 CALM      29.90S
COATESVILLE    NOT AVBL
POTTSTOWN      CLEAR     62  60  93 CALM      29.92S
BLUE BELL      NOT AVBL
DOYLESTOWN     CLEAR     67  59  75 CALM      29.90R
WILLOW GROVE   NOT AVBL
NORTH PHILA    PTCLDY    71  57  61 W5        29.91
PHILADELPHIA   PTCLDY    75  59  57 W5        29.90S
$$



USA.gov is the U.S. government's official web portal to all federal, state and local government web resources and services.